This demonstration page uses our WeatherBlox Daily Observations layout. Learn more.

Left ArrowRight Arrow

Hourly Observations for April 19, 2015

Temp ( °F °C ) Dew Point ( °F °C ) Humidity (%) Winds ( mph kmh ) Pressure ( in mb ) Visibility ( mi km ) Precip ( " mm )
12:53 am 00:53 Clear 28 -2.2 20 -6.7 72 72 WSW 3 6 30.31 1027 10 16 0.00 0.00
1:53 am 01:53 Clear 27 -2.8 20 -6.7 75 75 WSW 9 15 30.31 1026 10 16 0.00 0.00
2:53 am 02:53 Clear 25 -3.9 19 -7.2 78 78 WSW 10 17 30.32 1027 10 16 0.00 0.00
3:53 am 03:53 Clear 25 -3.9 19 -7.2 78 78 WSW 5 7 30.32 1027 10 16 0.00 0.00
4:53 am 04:53 Clear 25 -3.9 19 -7.2 78 78 WSW 10 17 30.31 1026 10 16 0.00 0.00
5:53 am 05:53 Clear 22 -5.6 19 -7.2 89 89 SW 9 15 30.33 1027 10 16 0.00 0.00
6:53 am 06:53 Sunny 23 -5 20 -6.7 88 88 SSW 6 9 30.35 1028 10 16 0.00 0.00
7:53 am 07:53 Sunny 31 -0.6 23 -5 72 72 WSW 8 13 30.33 1027 10 16 0.00 0.00
8:53 am 08:53 Sunny 37 2.8 23 -5 57 57 W 8 13 30.32 1027 10 16 0.00 0.00
9:53 am 09:53 Sunny 42 5.6 25 -3.9 51 51 VRB 5 7 30.32 1027 10 16 0.00 0.00
10:53 am 10:53 Mostly Sunny 50 10 24 -4.4 36 36 NNW 14 22 30.29 1026 10 16 0.00 0.00
11:53 am 11:53 Partly Cloudy 50 10 22 -5.6 33 33 N 9 15 30.28 1026 10 16 0.00 0.00
12:53 pm 12:53 Cloudy 52 11.1 23 -5 32 32 NW 8 13 30.25 1024 10 16 0.00 0.00
1:53 pm 13:53 Cloudy 50 10 21 -6.1 32 32 N 8 13 30.24 1024 10 16 0.00 0.00
2:53 pm 14:53 Cloudy 53 11.7 18 -7.8 25 25 VRB 7 11 30.21 1023 10 16 0.00 0.00
3:53 pm 15:53 Cloudy 54 12.2 19 -7.2 25 25 NW 12 19 30.19 1022 10 16 0.00 0.00
4:53 pm 16:53 Mostly Cloudy 54 12.2 18 -7.8 24 24 N 17 28 30.17 1022 10 16 0.00 0.00
5:53 pm 17:53 Mostly Cloudy 54 12.2 18 -7.8 24 24 NNW 10 17 30.17 1022 10 16 0.00 0.00
6:53 pm 18:53 Mostly Cloudy 53 11.7 18 -7.8 25 25 NNW 8 13 30.16 1021 10 16 0.00 0.00
7:53 pm 19:53 Sunny 48 8.9 20 -6.7 33 33 N 7 11 30.14 1021 10 16 0.00 0.00
8:53 pm 20:53 Clear 43 6.1 19 -7.2 38 38 NE 6 9 30.13 1020 10 16 0.00 0.00
9:53 pm 21:53 Clear 35 1.7 19 -7.2 52 52 SE 5 7 30.13 1020 10 16 0.00 0.00
10:53 pm 22:53 Clear 31 -0.6 19 -7.2 61 61 SE 3 6 30.11 1020 10 16 0.00 0.00
11:53 pm 23:53 Clear 31 -0.6 20 -6.7 64 64 SSW 5 7 30.11 1020 10 16 0.00 0.00

Powered by AerisWeather